星链-3805 (STARLINK-3805 )

导读

STARLINK-3805是美国SpaceX星链星座的一颗卫星,于2022年4月29日发射入轨,属于星链低轨互联网星座组网卫星。它遵循星链卫星设计,采用平板构型,配备单太阳翼和相控阵天线,依靠氪离子霍尔推进实现轨道维持与离轨,支持星间激光通信与自主碰撞规避,可为全球无网盲区提供低时延宽带互联网接入服务,属于星链第二代组网卫星,共同构建全球卫星通信网络。

基本信息
目录编号:
52377
目录名称:
STARLINK-3805
国际标识:
2022-045AY
轨道中心:
EARTH
卫星名称:
星链-3805
卫星全名:
星链-3805 (STARLINK-3805 )
卫星状态:
在轨 (已飞行1589 天)
发射日期:
2022-04-29 UTC
国别 :
美国 (US)
星等 :
--
轨道信息
数据来源 国际轨道数据 AOE轨道数据
星历时间 2026-09-03T22:37:20+0800
14小时前
查看轨道信息
2026-08-29T23:00:00+0800
5天前
查看轨道信息
半长轴 6840.834km 6840.829km
偏心率 0.0001023 0.0001222
轨道倾角 53.160° 53.159°
近地点辐角 97.553° 86.814°
升交点赤经 104.335° 127.636°
平近点角 262.559° 85.817°
近地点 461.997km 461.856km
远地点 463.397km 463.528km
周期 93.848分钟 93.848分钟
每日圈数 15.344023 15.344039
详细信息
固有亮度:
5
最大亮度:
2.5
卫星平台:
Starlink v1.5
覆盖范围:
全球
运营商:
太空探索技术公司
运营商所在国:
美国
制造商(研发单位):
太空探索技术公司
制造商所在国:
美国
使用方式:
暂无
卫星简介
星链(Starlink)计划是由太空探索技术公司(SpaceX)提出的一个巨型低轨卫星互联网星座项目,计划在2019年至2024年间在太空搭建由约1.2万颗卫星组成的“星链”网络,其中1584颗将部署在地球上空550千米处的近地轨道,并从2020年开始工作。该卫星仍在工作。
2D轨道图
3D轨道图
轨道高度分析图
轨道倾角分析图
轨道综合分析图
查看轨道综合分析图
交会数据列表
事件ID 空间交会对象 最接近时刻(TCA) 交会距离 交会风险概率(CRP) 交会风险指数(CRI) 操作
CDM_260905-023905-237705-284121
2026-09-05T
02:39:20+0000
0.445 km
远距离
2.336515E-4 高风险 0.82
CDM_260905-010505-237705-284121
2026-09-05T
01:05:32+0000
0.454 km
远距离
2.248805E-4 高风险 0.82
CDM_260905-133505-237705-284121
2026-09-05T
13:35:54+0000
0.859 km
远距离
3.920059E-5 中风险 0.67
CDM_260905-041305-237705-284121
2026-09-05T
04:13:07+0000
0.914 km
远距离
3.180007E-5 中风险 0.65
CDM_260904-233105-237705-284121
2026-09-04T
23:31:45+0000
1.219 km
极远距离
1.175097E-5 中风险 0.56
CDM_260905-120205-237705-284121
2026-09-05T
12:02:06+0000
1.245 km
极远距离
1.092867E-5 中风险 0.56
CDM_260905-054605-237705-284121
2026-09-05T
05:46:55+0000
1.277 km
极远距离
1.001087E-5 中风险 0.55
CDM_260905-102805-237705-284121
2026-09-05T
10:28:18+0000
1.480 km
极远距离
6.080364E-6 低风险 0.51
CDM_260905-072005-237705-284121
2026-09-05T
07:20:43+0000
1.495 km
极远距离
5.882825E-6 低风险 0.5
CDM_260905-085405-237705-284121
2026-09-05T
08:54:31+0000
1.563 km
极远距离
5.095741E-6 低风险 0.49